Cumberland, WV

1:52 PM EDT on September 20, 2017 (GMT -0400)
Greater Cumberland Regional

Weather History for KCBE - May, 2014

Change the Weather History Date:

Sunday, May 4, 2014

  Actual Average (KMRB) Record (KMRB)
Temperature  
Mean Temperature 61 °F -  
Max Temperature 71 °F 67 °F 91 °F (1938)
Min Temperature 51 °F 45 °F 31 °F (1957)
Degree Days  
Heating Degree Days 4    
Growing Degree Days 11 (Base 50)    
Moisture  
Dew Point 34 °F    
Average Humidity 36    
Maximum Humidity 67    
Minimum Humidity 25    
Precipitation  
Precipitation 0.00 in - - ()
Sea Level Pressure  
Sea Level Pressure 29.87 in    
Wind  
Wind Speed 9 mph (NW)    
Max Wind Speed 26 mph    
Max Gust Speed 45 mph    
Visibility 10 miles    
Events      
Averages and records for this station are not official NWS values.
T = Trace of Precipitation, MM = Missing Value Source: NWS Daily Summary

Daily Weather History Graph

Daily Weather History Graph

Search for Another Location

Airport or City:

Trip Planner

Search our weather history database for the weather conditions in past years. The results will help you decide how hot, cold, wet, or windy it might be!

Date:

Astronomy

May. 04, 2014 Rise Set
Actual Time 6:12 AM EDT 8:11 PM EDT
Civil Twilight 5:42 AM EDT 8:41 PM EDT
Nautical Twilight 5:07 AM EDT 9:17 PM EDT
Astronomical Twilight 4:28 AM EDT 9:56 PM EDT
Moon 10:34 AM EDT (5/4) 12:15 AM EDT (5/4)
Length of Visible Light 14h 58m
Length of Day
13h 59m
Waxing Crescent, 27% of the Moon is Illuminated
May 4
Waxing Crescent
May 6
First Quarter
May 14
Full
May 21
Last Quarter
May 28
New

Hourly Weather History & Observations

Time (EDT) Temp. Dew Point Humidity Pressure Visibility Wind Dir Wind Speed Gust Speed Precip Events Conditions
12:03 AM 60.8 °F 32.0 °F 34% 29.89 in 10.0 mi West 9.2 mph 19.6 mph N/A   Clear
12:23 AM 62.6 °F 32.0 °F 32% 29.89 in 10.0 mi West 15.0 mph 20.7 mph N/A   Clear
12:43 AM 62.6 °F 32.0 °F 32% 29.89 in 10.0 mi West 9.2 mph 20.7 mph N/A   Clear
1:03 AM 62.6 °F 32.0 °F 32% 29.90 in 10.0 mi West 12.7 mph 18.4 mph N/A   Clear
1:23 AM 60.8 °F 32.0 °F 34% 29.90 in 10.0 mi WNW 9.2 mph - N/A   Scattered Clouds
1:43 AM 62.6 °F 32.0 °F 32% 29.89 in 10.0 mi WNW 6.9 mph - N/A   Scattered Clouds
2:03 AM 60.8 °F 32.0 °F 34% 29.89 in 10.0 mi WNW 6.9 mph - N/A   Scattered Clouds
2:23 AM 60.8 °F 32.0 °F 34% 29.88 in 10.0 mi West 4.6 mph - N/A   Clear
2:43 AM 60.8 °F 32.0 °F 34% 29.88 in 10.0 mi Calm Calm - N/A   Clear
3:03 AM 60.8 °F 32.0 °F 34% 29.88 in 10.0 mi WSW 11.5 mph 16.1 mph N/A   Clear
3:23 AM 60.8 °F 32.0 °F 34% 29.88 in 10.0 mi Calm Calm - N/A   Clear
3:43 AM 59.0 °F 32.0 °F 36% 29.88 in 10.0 mi Calm Calm - N/A   Clear
4:03 AM 59.0 °F 32.0 °F 36% 29.88 in 10.0 mi Calm Calm - N/A   Clear
4:23 AM 59.0 °F 32.0 °F 36% 29.88 in 10.0 mi Calm Calm - N/A   Clear
4:43 AM 57.2 °F 32.0 °F 38% 29.87 in 10.0 mi SW 3.5 mph - N/A   Scattered Clouds
5:03 AM 53.6 °F 33.8 °F 47% 29.87 in 10.0 mi Calm Calm - N/A   Mostly Cloudy
5:23 AM 53.6 °F 35.6 °F 51% 29.87 in 10.0 mi West 4.6 mph - N/A   Mostly Cloudy
5:43 AM 53.6 °F 35.6 °F 51% 29.88 in 10.0 mi NNW 3.5 mph - N/A   Scattered Clouds
6:04 AM 51.8 °F 37.4 °F 58% 29.89 in 10.0 mi North 3.5 mph - N/A   Mostly Cloudy
6:24 AM 51.8 °F 37.4 °F 58% 29.89 in 10.0 mi NNW 3.5 mph - N/A   Scattered Clouds
6:44 AM 51.8 °F 37.4 °F 58% 29.89 in 10.0 mi Calm Calm - N/A   Scattered Clouds
7:04 AM 51.8 °F 37.4 °F 58% 29.89 in 10.0 mi NNE 3.5 mph - N/A   Scattered Clouds
7:24 AM 51.8 °F 41.0 °F 67% 29.89 in 10.0 mi Calm Calm - N/A   Scattered Clouds
7:44 AM 57.2 °F 37.4 °F 48% 29.88 in 10.0 mi NW 3.5 mph - N/A   Scattered Clouds
8:04 AM 59.0 °F 37.4 °F 45% 29.88 in 10.0 mi North 5.8 mph - N/A   Clear
8:24 AM 60.8 °F 35.6 °F 39% 29.87 in 10.0 mi ENE 4.6 mph - N/A   Clear
8:44 AM 62.6 °F 33.8 °F 34% 29.87 in 10.0 mi Calm Calm - N/A   Scattered Clouds
9:04 AM 62.6 °F 35.6 °F 37% 29.87 in 10.0 mi North 3.5 mph - N/A   Mostly Cloudy
9:24 AM 62.6 °F 33.8 °F 34% 29.86 in 10.0 mi West 4.6 mph - N/A   Scattered Clouds
9:44 AM 64.4 °F 33.8 °F 32% 29.85 in 10.0 mi West 10.4 mph - N/A   Clear
10:04 AM 64.4 °F 33.8 °F 32% 29.85 in 10.0 mi WNW 3.5 mph - N/A   Clear
10:24 AM 66.2 °F 35.6 °F 32% 29.84 in 10.0 mi West 8.1 mph - N/A   Clear
10:44 AM 68.0 °F 33.8 °F 28% 29.84 in 10.0 mi West 16.1 mph 32.2 mph N/A   Clear
11:04 AM 68.0 °F 35.6 °F 30% 29.83 in 10.0 mi West 13.8 mph 35.7 mph N/A   Clear
11:24 AM 69.8 °F 35.6 °F 28% 29.83 in 10.0 mi WNW 15.0 mph 41.4 mph N/A   Clear
11:44 AM 69.8 °F 35.6 °F 28% 29.82 in 10.0 mi West 26.5 mph 44.9 mph N/A   Clear
12:04 PM 69.8 °F 35.6 °F 28% 29.81 in 10.0 mi West 15.0 mph 26.5 mph N/A   Clear
12:24 PM 69.8 °F 35.6 °F 28% 29.80 in 10.0 mi WNW 20.7 mph 36.8 mph N/A   Clear
12:44 PM 71.6 °F 37.4 °F 29% 29.80 in 10.0 mi NW 17.3 mph 32.2 mph N/A   Clear
1:04 PM 71.6 °F 37.4 °F 29% 29.80 in 10.0 mi West 15.0 mph 33.4 mph N/A   Clear
1:24 PM 71.6 °F 35.6 °F 27% 29.79 in 10.0 mi West 24.2 mph 43.7 mph N/A   Clear
1:44 PM 71.6 °F 35.6 °F 27% 29.80 in 10.0 mi WNW 13.8 mph 32.2 mph N/A   Clear
2:04 PM 71.6 °F 35.6 °F 27% 29.80 in 10.0 mi West 25.3 mph 40.3 mph N/A   Clear
2:24 PM 69.8 °F 37.4 °F 31% 29.81 in 10.0 mi West 13.8 mph 35.7 mph N/A   Scattered Clouds
2:45 PM 71.6 °F 35.6 °F 27% 29.81 in 10.0 mi West 15.0 mph 31.1 mph N/A   Scattered Clouds
3:05 PM 71.6 °F 35.6 °F 27% 29.80 in 10.0 mi West 17.3 mph 38.0 mph N/A   Clear
3:25 PM 71.6 °F 35.6 °F 27% 29.81 in 10.0 mi WNW 15.0 mph 28.8 mph N/A   Clear
3:45 PM 71.6 °F 33.8 °F 25% 29.80 in 10.0 mi WNW 21.9 mph 39.1 mph N/A   Clear
4:05 PM 71.6 °F 33.8 °F 25% 29.80 in 10.0 mi West 19.6 mph 32.2 mph N/A   Scattered Clouds
4:25 PM 69.8 °F 33.8 °F 27% 29.80 in 10.0 mi West 18.4 mph 33.4 mph N/A   Clear
4:45 PM 69.8 °F 33.8 °F 27% 29.81 in 10.0 mi NW 16.1 mph 33.4 mph N/A   Clear
5:05 PM 68.0 °F 37.4 °F 33% 29.82 in 10.0 mi NNW 16.1 mph 25.3 mph N/A   Scattered Clouds
5:25 PM 68.0 °F 37.4 °F 33% 29.83 in 10.0 mi NNW 16.1 mph 21.9 mph N/A   Clear
5:45 PM 66.2 °F 37.4 °F 35% 29.84 in 10.0 mi North 10.4 mph 19.6 mph N/A   Clear
6:05 PM 64.4 °F 39.2 °F 40% 29.85 in 10.0 mi NNW 18.4 mph 24.2 mph N/A   Scattered Clouds
6:25 PM 64.4 °F 41.0 °F 42% 29.86 in 10.0 mi NNW 9.2 mph 21.9 mph N/A   Clear
6:45 PM 62.6 °F 39.2 °F 42% 29.86 in 10.0 mi NNW 9.2 mph 16.1 mph N/A   Clear
7:05 PM 62.6 °F 37.4 °F 39% 29.87 in 10.0 mi NNW 9.2 mph - N/A   Clear
7:25 PM 62.6 °F 35.6 °F 37% 29.88 in 10.0 mi NNW 8.1 mph 17.3 mph N/A   Clear
7:45 PM 64.4 °F 35.6 °F 34% 29.89 in 10.0 mi NNW 6.9 mph - N/A   Clear
8:05 PM 62.6 °F 32.0 °F 32% 29.90 in 10.0 mi NW 5.8 mph 19.6 mph N/A   Clear
8:25 PM 62.6 °F 30.2 °F 30% 29.91 in 10.0 mi WNW 13.8 mph 26.5 mph N/A   Clear
8:45 PM 62.6 °F 28.4 °F 27% 29.92 in 10.0 mi NW 9.2 mph 20.7 mph N/A   Clear
9:05 PM 60.8 °F 28.4 °F 29% 29.94 in 10.0 mi NNW 12.7 mph 24.2 mph N/A   Clear
9:25 PM 60.8 °F 32.0 °F 34% 29.96 in 10.0 mi NNW 11.5 mph 20.7 mph N/A   Clear
9:45 PM 59.0 °F 32.0 °F 36% 29.97 in 10.0 mi NNW 11.5 mph 23.0 mph N/A   Clear
10:05 PM 59.0 °F 32.0 °F 36% 29.98 in 10.0 mi North 13.8 mph 18.4 mph N/A   Clear
10:25 PM 55.4 °F 33.8 °F 44% 30.00 in 10.0 mi North 11.5 mph 16.1 mph N/A   Clear
10:45 PM 53.6 °F 33.8 °F 47% 30.01 in 10.0 mi North 9.2 mph 16.1 mph N/A   Clear
11:05 PM 53.6 °F 32.0 °F 44% 30.02 in 10.0 mi NNW 16.1 mph 21.9 mph N/A   Clear
11:26 PM 53.6 °F 32.0 °F 44% 30.03 in 10.0 mi NW 11.5 mph 25.3 mph N/A   Clear
11:46 PM 51.8 °F 32.0 °F 47% 30.03 in 10.0 mi NNW 17.3 mph 23.0 mph N/A   Clear